Regional Weather Roundup
Issued by NWS

Home | Current Version | Previous Version | Graphics & Text | Print | Product List | Glossary On
Versions: 1 2 3 4 5 6 7 8 9 10 11 12 13 14 15 16 17 18 19 20 21 22 23 24 25 26 27 28 29 30 31 32 33 34 35 36 37 38 39 40 41 42 43 44 45 46 47 48 49 50
000
ASUS43 KTOP 121659
RWRKS

WEATHER ROUNDUP FOR KANSAS
NATIONAL WEATHER SERVICE GOODLAND KS
1100 AM CST FRI FEB 12 2016

NOTE:  "FAIR" INDICATES FEW OR NO CLOUDS BELOW 12,000 FEET WITH NO
SIGNIFICANT WEATHER AND/OR OBSTRUCTIONS TO VISIBILITY.

KSZ001>006-013>018-027>032-041>047-121800-
NORTHWEST KANSAS

CITY           SKY/WX    TMP DP  RH WIND       PRES   REMARKS
GOODLAND       MOSUNNY   43  31  62 E9        30.36R
HAYS           CLOUDY    32  21  64 NE15      30.45R WCI  22
HILL CITY      CLOUDY    35  30  82 NE10      30.44R WCI  27
RUSSELL        CLOUDY    30  27  88 NE14      30.43R WCI  19
$$

KSZ061>065-074>080-084>089-121800-
SOUTHWEST KANSAS

CITY           SKY/WX    TMP DP  RH WIND       PRES   REMARKS
DODGE CITY     SUNNY     39  31  72 NE10      30.38S WCI  32
ELKHART          N/A     50  30  46 SE9         N/A
GARDEN CITY    SUNNY     45  32  60 NE10      30.36S
GREAT BEND     CLOUDY    30  21  69 NE16      30.44R WCI  19
LIBERAL        SUNNY     48  32  53 E7        30.38R
$$

KSZ066>073-081>083-090>101-121800-
SOUTHEAST KANSAS

CITY           SKY/WX    TMP DP  RH WIND       PRES   REMARKS
CHANUTE        SUNNY     38  25  59 N17G26    30.42R WCI  28
COFFEYVILLE    SUNNY     41  26  55 N18       30.41R
HUTCHINSON     CLOUDY    31  26  82 N17       30.44R WCI  19
MEDICINE LODGE   N/A     40  29  64 N15       30.40R WCI  32
NEWTON         CLOUDY    30  21  69 NE17      30.43S WCI  18
PARSONS        SUNNY     40  26  57 NE13G22   30.42R WCI  32
WICHITA INTL   PTSUNNY   36  27  69 NE18G25   30.41R WCI  26
WICHITA JABRA  CLOUDY    34  26  72 N14G23    30.42R WCI  25
WICHITA MCCONL PTSUNNY   35  28  73 NE18      30.41  WCI  25
WINFIELD       MOSUNNY   39  28  64 N15       30.41R WCI  31
$$

KSZ007>012-019>026-033>040-048>060-102>105-121800-
NORTHEAST KANSAS

CITY           SKY/WX    TMP DP  RH WIND       PRES   REMARKS
CONCORDIA      CLOUDY    30  24  78 N8        30.47R
EMPORIA        PTSUNNY   35  26  69 N15G21    30.42R WCI  25
LAWRENCE       CLOUDY    35  24  64 NW14      30.44R WCI  26
MANHATTAN      CLOUDY    32  24  72 N12       30.48R WCI  23
OLATHE IND     CLOUDY    34  24  67 NW14      30.43R WCI  25
OLATHE EXE     CLOUDY    33  22  63 N16G24    30.42R WCI  23
SALINA         CLOUDY    34  25  69 NE15      30.47R WCI  24
TOPEKA BILLARD CLOUDY    34  22  61 N10       30.46R WCI  26
TOPEKA FORBES  CLOUDY    35  24  64 NW17      30.44R WCI  25
$$



USA.gov is the U.S. government's official web portal to all federal, state and local government web resources and services.